RH
62 67 71 77 80 79 80 77 73 71 68 63 61 60 60 57 52 49 44 39 36 34 31 29 27 28 31 30 35 38 45 53 58 55 55 74 56 56 60 69 82 90 89
66 72 75 79 84 84 82 81 79 78 75 71 68 64 60 58 55 52 48 41 39 35 33 32 31 30 31 36 35 40 46 49 50 51 56 54 63 58 71 77 84 88 94
72 78 78 83 88 91 87 84 82 76 74 74 70 68 66 63 62 56 48 41 41 38 32 31 30 30 29 30 36 38 45 48 55 54 57 66 56 65 72 89 85 85 88
70 74 81 87 89 91 89 84 78 77 76 73 72 69 65 61 56 49 47 43 36 38 38 34 32 28 28 28 31 36 40 49 50 48 58 69 65 69 70 90 87 70 80
67 69 76 90 94 90 88 89 90 85 80 76 72 71 68 65 62 56 54 46 45 37 33 33 33 33 32 31 31 34 37 42 49 53 54 54 52 57 67 79 84 72 83
66 71 76 83 93 96 96 97 92 82 79 76 74 72 67 59 56 55 48 42 39 35 33 32 31 32 32 32 32 33 35 39 41 47 54 55 53 52 67 64 67 73 72
68 74 80 90 96 96 95 93 88 81 78 76 74 71 68 61 54 53 49 39 35 27 26 26 27 28 32 33 33 34 33 38 39 43 49 54 56 57 52 49 64 69 53
68 79 88 85 93 91 89 87 85 82 79 74 67 60 54 51 50 47 39 38 34 27 22 21 21 24 27 34 36 37 36 38 40 40 47 45 58 57 55 53 57 58 67
73 77 79 81 80 87 90 84 77 72 67 64 60 55 50 46 43 39 34 31 29 26 21 20 21 21 23 26 36 40 42 41 39 39 41 45 44 55 54 56 58 60 66
75 75 77 81 81 77 75 72 65 61 60 57 54 53 52 48 46 41 43 37 33 27 23 22 22 21 20 22 29 37 43 44 42 39 40 40 44 49 52 54 60 59 59
70 70 72 76 74 72 69 67 63 58 59 58 56 52 48 45 44 41 37 36 33 30 27 25 24 23 21 21 24 33 40 43 44 44 42 41 45 47 50 55 61 67 62
64 67 69 70 70 66 62 59 59 59 59 58 51 46 42 40 40 40 39 37 37 35 33 30 27 24 23 22 24 25 35 46 46 48 48 46 45 50 54 56 62 66 66
69 65 66 65 65 61 58 55 55 56 53 49 46 43 42 41 41 40 40 40 39 37 35 32 27 24 24 24 25 25 35 45 51 51 54 55 53 52 56 56 64 70 78
63 62 60 59 54 54 56 56 55 50 47 46 46 46 47 47 45 43 41 40 38 37 36 35 32 26 24 27 24 22 27 38 51 54 58 62 61 61 61 64 67 75 85
62 61 57 54 56 60 61 56 50 48 50 49 48 46 47 46 44 41 38 36 34 32 31 29 29 27 24 26 26 25 29 37 49 56 63 75 73 73 70 74 75 81 89
63 59 57 60 63 61 54 51 51 47 44 43 43 43 43 42 41 39 37 36 34 33 33 32 30 30 26 27 28 28 32 38 46 59 75 82 86 83 84 86 83 85 97
57 59 64 62 58 54 53 48 44 42 39 39 41 43 45 45 44 43 42 40 38 37 36 36 35 35 32 30 30 32 38 44 50 71 82 84 97 90 90 87 91 95 93
63 65 62 57 54 51 45 42 40 39 40 42 45 47 49 47 46 46 45 43 43 42 42 41 41 39 35 34 36 39 48 53 73 86 87 96 95 97 94 98 96 96 93
64 60 57 53 47 46 44 39 40 41 42 45 49 52 52 51 52 52 50 48 48 48 48 46 45 44 40 41 43 53 62 78 91 94 94 97 98 98 97 95 98 96 91
59 55 51 44 44 44 40 39 41 42 46 50 54 57 57 56 58 58 55 55 55 54 53 51 51 48 45 51 60 71 87 96 95 95 94 94 98 98 99 97 96 98 94
54 49 44 43 43 40 41 41 42 43 49 57 61 62 62 62 63 63 62 60 59 56 55 55 55 53 59 68 81 92 96 98 97 98 98 98 98 98 99 98 98 97 97
49 42 40 38 37 38 40 43 44 46 53 63 67 66 66 68 68 68 67 65 61 60 60 60 61 66 79 91 96 97 98 98 98 98 98 98 98 98 99 98 98 98 98
42 40 40 36 36 39 43 44 45 48 54 67 73 70 71 72 72 73 72 67 66 67 69 74 75 93 97 98 98 98 98 98 98 98 98 99 99 98 98 99 98 98 98
39 38 36 34 35 40 44 46 47 52 58 71 77 75 76 79 81 80 76 70 71 75 84 92 97 98 98 97 98 97 98 98 98 98 98 98 98 98 98 98 98 98 98
36 34 35 35 37 40 44 47 50 55 62 76 81 81 84 90 88 85 76 72 78 95 97 98 98 97 97 97 97 98 97 98 98 98 98 98 98 99 98 98 98 98 98
33 34 37 39 38 40 44 48 54 58 65 77 83 85 89 92 90 83 75 75 92 98 98 98 97 97 97 97 97 97 97 97 98 98 98 98 98 98 98 98 98 98 98